Погода в Каргасоке

Погода в Каргасоке : погода сейчас, прогноз погоды и архив. Всё, что Вы хотите узнать о погоде в Каргасоке!

Хотите узнать прогноз погоды в Каргасоке? Тогда Вам сюда: Погода в Каргасоке

Поиск расширенной информации на нашем сайте:

Полезная информация: Варикозно расширенные вены.

Другие новости

Новости СМИ2

Главная страница сайта

Новости сайта

03.07.2017

Напоминаем, что на нашем специализированном сайте Метеоцентр.Азия вы можете получить высокодетализированные автоматические прогнозы погоды по пунктам России, СНГ и мира в авиационном формате (включающие направление и скорость ветра, видимость, явления погоды, количество и форму облачности, нижнюю и верхнюю границу облачности).

Рекомендуем: Вытянуть вмятину без покраски как убрать вмятину без покраски.

Погода в Каргасоке - сегодня

Время (UTC), дата Ветер
(°,м/с) 
Видим.   Явления Облачность Т
(°С)
Тd
(°С)
f(%) Тe
(°С)
Pmin
(гПа)
dP
(гПа)
Po
(мм)
O2
(г/м3)
Тmin Tmax R s Состояние
почвы
00 11.12.17 110 (В) 4000 м  слаб. ливневой снег  10/10 630 м кучево-дожд. 
[Cb calv]
-7.7 -9.1 90 -9  1022.6  -0.1  761  317  -11.4    0.2  22  равномерный
сухой снег
100% 
03 11.12.17 140 (ЮВ) 20000 м  {ливн. осадки}  10/10 420 м 
[Sc]
-6.9 -7.8 93 -7  1024.3  1.7  763  316           
06 11.12.17 160 (Ю) 20000 м  {ливн. осадки}  8/5 600 м средняя 
[Sc|Ac trans]
-7 -8.1 92 -7  1025.9  1.6  764  317           
09 11.12.17 220 (ЮЗ) 20000 м    8/0 средняя, верхняя 
[Ac trans|Ci sp]
-8.6 -9.9 90 -8  1027.2  1.2  765  319           
12 11.12.17 тихо ()   20000 м    3/0 верхняя 
[Ci sp]
-15.9 -17.4 88 -16  1028.3  0.9  765  329    -6.1  0.0     
15 11.12.17 290 (З) 20000 м    10/10 540 м 
[Sc]
-18.5 -20.4 85 -19  1029.4  766  333           
18 11.12.17 230 (ЮЗ) 20000 м    10/10 330 м 
[Sc]
-14.5 -16 88 -15  1029.6  0.3  766  328           
21 11.12.17 200 (Ю) 20000 м    10/6 300 м средняя 
[Sc|Ac und]
-15.1 -16.7 88 -17  1030.2  0.6  767  329           
00 12.12.17 220 (ЮЗ) 20000 м    8/8 210 м 
[St]
-17.3 -18.5 90 -17  1030.6  0.3  767  332  -18.6      22  равномерный
сухой снег
100% 
03 12.12.17 260 (З) 20000 м    10/10 120 м 
[St]
-16.4 -17.7 90 -19  1032.3  1.7  768  331           
06 12.12.17 250 (З) 20000 м  {ливн. осадки}  10/4 300 м кучево-дожд., верхняя 
[Cb calv|Ci sp]
-14.8 -16.1 90 -18  1032.2  768  329           
09 12.12.17 260 (З) 10 км  слаб. ливневой снег  10/3 300 м кучево-дожд., верхняя 
[Cb calv|Ci sp]
-14.3 -16 87 -16  1033  0.8  769  328           
12 12.12.17 260 (З) 20000 м  {ливн. осадки}  10/0 средняя 
[Ac As]
-14.7 -16 90 -15  1034  770  329    -13.9  0.6     
15 12.12.17 270 (З) 4000 м  слаб. ливневой снег  10/5 400 м кучево-дожд., средняя 
[Cb calv|As op]
-14.2 -15.5 90 -14  1035.5  1.5  771  329           
18 12.12.17 240 (ЮЗ) 10 км  слаб. ливневой снег  10/3 300 м кучево-дожд., средняя 
[Cb calv|As op]
-15.6 -17.5 85 -18  1036.3  0.8  771  331           
21 12.12.17 240 (ЮЗ) 20000 м  {ливн. осадки}  9/0 средняя, верхняя 
[Ac trans|Ci sp]
-18.6 -20.5 85 -21  1037.3  0.8  772  335           
00 13.12.17 230 (ЮЗ) 20000 м  {ливн. осадки}  ясно 
-21.4 -23.8 81 -22  1038  0.7  773  339  -21.6    0.4  23  равномерный
сухой снег
100% 
03 13.12.17 250 (З) 20000 м    4/0 верхняя 
[Ci fib]
-19.8 -21.7 85 -23  1039.2  1.2  773  338  -21.6         
06 13.12.17 250 (З) 20000 м  {ливн. осадки}  6/0 верхняя 
[Ci fib]
-19.3 -21.2 85 -24  1039.9  0.7  774  337           
09 13.12.17 240 (ЮЗ) 20000 м    9/0 верхняя 
[Ci fib]
-19.3 -21.2 85 -22  1040.8  0.9  775  338           
12 13.12.17 230 (ЮЗ) 20000 м    9/0 верхняя 
[Ci fib]
-20.1 -22.4 82 -23  1041.6  0.7  775  339    -18.9  0.0     
15 13.12.17 240 (ЮЗ) 10 км  слаб. ливневой снег  10/6 400 м кучево-дожд., верхняя 
[Cb calv|Ci sp]
-19.5 -21.4 85 -24  1041.5  775  338           
18 13.12.17 250 (З) 20000 м  {ливн. осадки}  10/10 330 м 
[St]
-18.9 -20.8 85 -23  1041.9  0.4  775  337           
21 13.12.17 230 (ЮЗ) 20000 м    6/6 210 м 
[St]
-20.2 -22.1 85 -23  1042.9  0.9  776  339           
00 14.12.17 230 (ЮЗ) 20000 м    3/0 верхняя 
[Ci sp]
-21.1 -23.5 81 -24  1042.9  776  341  -21.1    0.0  23  равномерный
сухой снег
100% 
Время (UTC), дата Ветер
(°,м/с) 
Видим.   Явления Облачность Т
(°С)
Тd
(°С)
f(%) Тe
(°С)
Pmin
(гПа)
dP
(гПа)
Po
(мм)
O2
(г/м3)
Тmin Tmax R s Состояние
почвы

Для получения пояснительной информации подведите курсор к названию столбца.

ПОГОДА в Каргасоке - архив

Всё, что Вы хотите узнать о погоде в Каргасоке - удобно и подробно!

Выберите нужную дату (начиная с 1 января 2015* года) и нажмите кнопку "Найти".
Будут отображены архивные сводки погоды по пункту Каргасок, начиная с указанной даты.


Отображать данные в формате CSV (для использования в таблицах Excel)


Внимание! Наш архив погоды предназначен исключительно для личного некоммерческого использования в познавательных целях. Если Вам необходимы официальные справки о состоянии погоды (для производственных, юридических, коммерческих и т.п. целей), обращайтесь в органы Росгидромета.

*Примечание: данная дата относится к архиву по метеостанциям СССР (Россия, СНГ, Балтия).
Архив по метеостанциям Зарубежной Европы и Азии (кроме Китая) хранится 10 дней, по другим регионам земного шара (Китай, Африка, Америка, Австралия, Океания) - 1 день.

Каргасок - район местоположения метеостанции


Название, широта, долгота, высота метеостанции:
Каргасок 59.1°ш. 80.9°д. 59 м над ур. моря [Российская Федерация]

Дополнительная информация

В oтличие oт бoльшинства пoгoдных сайтoв мы публикуем пoдрoбную метеoинфoрмацию в детальнoм прoфессиoнальнoм фoрмате.

Характеристики температуры и влажнoсти вoздуха измеряются на высoте 2 м в тени вдали oт зданий и деревьев.
Скoрoсть ветра измеряется на высoте 10 м (на урoвне рoста челoвека скoрoсть ветра ниже в 1.5-2 раза). Если метеoстанция нахoдится в гoрoде или в лесу, тo скoрoсть ветра занижена на 2-4 м/с пo сравнению с oткрытым местoм. Скoрoсть ветра над акватoриями крупных рек и oзёр, а также на вершинах хoлмoв на 2-5 м/с выше, чем в oбычных услoвиях.
Атмoсфернoе давление в разных тoчках местнoсти мoжет значительнo oтличаться oт давления на метеoстанции, в зависимoсти oт услoвий рельефа (при пoдъёме на 10 м давление пoнижается примернo на 1 мм рт.ст.).